Time,TemperatureF,DewpointF,PressureIn,WindDirection,WindDirectionDegrees,WindSpeedMPH,WindSpeedGustMPH,Humidity,HourlyPrecipIn,Conditions,Clouds,dailyrainin,SoftwareType,DateUTC
2013-06-08 00:00:00,55.6,55.6,29.92,NW,326,0.0,2.0,100,0.24,,---,-99.99,VWS V14.01,2013-06-08 04:00:00,
2013-06-08 00:01:00,55.6,55.6,29.92,NW,326,0.0,2.0,100,0.24,,---,0.31,VWS V14.01,2013-06-08 04:01:00,
2013-06-08 00:02:00,55.6,55.6,29.92,NW,326,0.0,0.0,100,0.15,,---,0.00,VWS V14.01,2013-06-08 04:02:00,
2013-06-08 00:07:00,55.6,55.6,29.92,NW,326,0.0,0.0,100,0.15,,---,0.00,VWS V14.01,2013-06-08 04:07:00,
2013-06-08 00:12:00,55.6,55.6,29.92,NW,320,0.0,0.0,100,0.15,,---,0.00,VWS V14.01,2013-06-08 04:12:00,
2013-06-08 00:17:00,55.4,55.4,29.91,NE,44,0.0,3.0,100,0.26,,---,0.11,VWS V14.01,2013-06-08 04:17:00,
2013-06-08 00:22:00,55.4,55.4,29.91,NNE,27,0.0,3.0,100,0.26,,---,0.11,VWS V14.01,2013-06-08 04:22:00,
2013-06-08 00:27:00,55.4,55.4,29.91,ESE,106,5.0,5.0,100,0.28,,---,0.13,VWS V14.01,2013-06-08 04:27:00,
2013-06-08 00:32:00,55.3,55.3,29.90,NNE,32,0.0,5.0,100,0.28,,---,0.13,VWS V14.01,2013-06-08 04:32:00,
2013-06-08 00:38:00,55.6,55.6,29.90,ENE,62,0.0,5.0,100,0.29,,---,0.14,VWS V14.01,2013-06-08 04:38:00,
2013-06-08 00:43:00,55.6,55.6,29.90,North,359,0.0,5.0,100,0.29,,---,0.14,VWS V14.01,2013-06-08 04:43:00,
2013-06-08 00:48:00,55.6,55.6,29.89,WNW,289,0.0,5.0,100,0.29,,---,0.14,VWS V14.01,2013-06-08 04:48:00,
2013-06-08 00:53:00,56.0,56.0,29.89,ENE,71,1.0,5.0,100,0.29,,---,0.14,VWS V14.01,2013-06-08 04:53:00,
2013-06-08 00:58:00,56.0,56.0,29.89,ENE,71,1.0,5.0,100,0.29,,---,0.14,VWS V14.01,2013-06-08 04:58:00,
2013-06-08 01:00:00,56.0,56.0,29.89,ENE,71,1.0,5.0,100,0.29,,---,-99.99,VWS V14.01,2013-06-08 05:00:00,
2013-06-08 01:03:00,56.3,56.3,29.89,SSW,210,0.0,1.0,100,0.14,,---,0.14,VWS V14.01,2013-06-08 05:03:00,
2013-06-08 01:08:00,56.3,56.3,29.89,SSE,147,0.0,3.0,100,0.17,,---,0.17,VWS V14.01,2013-06-08 05:08:00,
2013-06-08 01:13:00,56.7,56.7,29.89,ENE,64,3.0,3.0,100,0.17,,---,0.17,VWS V14.01,2013-06-08 05:13:00,
2013-06-08 01:18:00,56.3,56.3,29.87,SSE,150,0.0,6.0,100,0.20,,---,0.20,VWS V14.01,2013-06-08 05:18:00,
2013-06-08 01:23:00,56.3,56.3,29.87,ESE,106,0.0,6.0,100,0.22,,---,0.22,VWS V14.01,2013-06-08 05:23:00,
2013-06-08 01:28:00,56.3,56.3,29.87,NNE,28,0.0,6.0,100,0.22,,---,0.22,VWS V14.01,2013-06-08 05:28:00,
2013-06-08 01:34:00,56.3,56.3,29.86,NNE,18,0.0,6.0,100,0.22,,---,0.22,VWS V14.01,2013-06-08 05:34:00,
2013-06-08 01:39:00,56.0,56.0,29.86,South,188,5.0,6.0,100,0.22,,---,0.22,VWS V14.01,2013-06-08 05:39:00,
2013-06-08 01:44:00,56.5,56.5,29.86,North,0,0.0,6.0,100,0.22,,---,0.22,VWS V14.01,2013-06-08 05:44:00,
2013-06-08 01:49:00,55.9,55.9,29.84,North,353,1.0,6.0,100,0.22,,---,0.22,VWS V14.01,2013-06-08 05:49:00,
2013-06-08 01:54:00,55.7,55.7,29.84,ENE,58,8.0,8.0,100,0.22,,---,0.22,VWS V14.01,2013-06-08 05:54:00,
2013-06-08 01:59:00,55.7,55.7,29.84,ENE,61,0.0,8.0,100,0.22,,---,0.22,VWS V14.01,2013-06-08 05:59:00,
2013-06-08 02:00:00,55.7,55.7,29.84,NE,47,0.0,8.0,100,0.22,,---,-99.99,VWS V14.01,2013-06-08 06:00:00,
2013-06-08 02:04:00,55.7,55.7,29.84,NNE,27,0.0,0.0,100,0.17,,---,0.31,VWS V14.01,2013-06-08 06:04:00,
2013-06-08 02:09:00,55.7,55.7,29.84,East,90,0.0,6.0,100,0.17,,---,0.31,VWS V14.01,2013-06-08 06:09:00,
2013-06-08 02:14:00,55.9,55.9,29.84,ENE,68,0.0,7.0,100,0.17,,---,0.31,VWS V14.01,2013-06-08 06:14:00,
2013-06-08 02:19:00,55.9,55.9,29.83,NW,313,6.0,8.0,100,0.19,,---,0.33,VWS V14.01,2013-06-08 06:19:00,
2013-06-08 02:24:00,55.7,55.7,29.83,NE,41,0.0,8.0,100,0.20,,---,0.34,VWS V14.01,2013-06-08 06:24:00,
2013-06-08 02:29:00,55.7,55.7,29.83,SE,128,1.0,8.0,100,0.21,,---,0.35,VWS V14.01,2013-06-08 06:29:00,
2013-06-08 02:34:00,55.7,55.7,29.82,SE,128,1.0,8.0,100,0.21,,---,0.35,VWS V14.01,2013-06-08 06:34:00,
2013-06-08 02:39:00,55.7,55.7,29.82,ENE,64,2.0,8.0,100,0.21,,---,0.35,VWS V14.01,2013-06-08 06:39:00,
2013-06-08 02:45:00,55.7,55.7,29.82,NE,52,0.0,8.0,100,0.21,,---,0.35,VWS V14.01,2013-06-08 06:45:00,
2013-06-08 02:50:00,55.7,55.7,29.81,East,79,1.0,8.0,100,0.27,,---,0.41,VWS V14.01,2013-06-08 06:50:00,
2013-06-08 02:55:00,55.9,55.9,29.81,SSE,154,0.0,8.0,100,0.29,,---,0.43,VWS V14.01,2013-06-08 06:55:00,
2013-06-08 03:00:00,55.9,55.9,29.79,NE,45,3.0,8.0,100,0.29,,---,0.43,VWS V14.01,2013-06-08 07:00:00,
2013-06-08 03:05:00,55.7,55.7,29.79,North,349,0.0,3.0,100,0.21,,---,0.43,VWS V14.01,2013-06-08 07:05:00,
2013-06-08 03:10:00,55.7,55.7,29.79,WSW,240,0.0,3.0,100,0.21,,---,0.43,VWS V14.01,2013-06-08 07:10:00,
2013-06-08 03:15:00,56.3,56.3,29.78,WSW,251,2.0,3.0,100,0.21,,---,0.43,VWS V14.01,2013-06-08 07:15:00,
2013-06-08 03:20:00,56.3,56.3,29.78,WNW,291,2.0,3.0,100,0.25,,---,0.47,VWS V14.01,2013-06-08 07:20:00,
2013-06-08 03:25:00,56.3,56.3,29.78,ENE,64,0.0,3.0,100,0.25,,---,0.47,VWS V14.01,2013-06-08 07:25:00,
2013-06-08 03:30:00,56.3,56.3,29.78,NE,41,6.0,6.0,100,0.25,,---,0.47,VWS V14.01,2013-06-08 07:30:00,
2013-06-08 03:35:00,55.3,55.3,29.78,SW,224,0.0,10.0,100,0.32,,---,0.54,VWS V14.01,2013-06-08 07:35:00,
2013-06-08 03:40:00,55.4,55.4,29.78,ENE,75,0.0,10.0,100,0.32,,---,0.54,VWS V14.01,2013-06-08 07:40:00,
2013-06-08 03:45:00,55.4,55.4,29.76,NE,54,12.0,12.0,100,0.38,,---,0.60,VWS V14.01,2013-06-08 07:45:00,
2013-06-08 03:50:00,55.3,55.3,29.76,ENE,61,6.0,12.0,100,0.38,,---,0.60,VWS V14.01,2013-06-08 07:50:00,
2013-06-08 03:55:00,55.3,55.3,29.76,North,353,6.0,12.0,100,0.38,,---,0.60,VWS V14.01,2013-06-08 07:55:00,
2013-06-08 04:00:00,55.3,55.3,29.75,North,357,2.0,12.0,100,0.42,,---,0.64,VWS V14.01,2013-06-08 08:00:00,
2013-06-08 04:06:00,55.6,55.6,29.75,ENE,59,3.0,3.0,100,0.21,,---,0.64,VWS V14.01,2013-06-08 08:06:00,
2013-06-08 04:11:00,55.6,55.6,29.75,NNE,27,3.0,3.0,100,0.21,,---,0.64,VWS V14.01,2013-06-08 08:11:00,
2013-06-08 04:16:00,55.6,55.6,29.76,NE,54,0.0,4.0,100,0.21,,---,0.64,VWS V14.01,2013-06-08 08:16:00,
2013-06-08 04:21:00,55.6,55.6,29.76,NE,54,0.0,4.0,100,0.21,,---,0.64,VWS V14.01,2013-06-08 08:21:00,
2013-06-08 04:26:00,55.6,55.6,29.76,NE,54,0.0,4.0,100,0.21,,---,0.64,VWS V14.01,2013-06-08 08:26:00,
2013-06-08 04:31:00,55.6,55.6,29.74,North,0,0.0,4.0,100,0.21,,---,0.64,VWS V14.01,2013-06-08 08:31:00,
2013-06-08 04:36:00,55.6,55.6,29.74,West,272,0.0,4.0,100,0.36,,---,0.79,VWS V14.01,2013-06-08 08:36:00,
2013-06-08 04:41:00,54.8,54.8,29.74,SW,233,0.0,4.0,100,0.36,,---,0.79,VWS V14.01,2013-06-08 08:41:00,
2013-06-08 04:46:00,54.8,54.8,29.74,South,188,0.0,4.0,100,0.36,,---,0.79,VWS V14.01,2013-06-08 08:46:00,
2013-06-08 04:51:00,55.4,55.4,29.74,WNW,295,0.0,4.0,100,0.36,,---,0.79,VWS V14.01,2013-06-08 08:51:00,
2013-06-08 04:56:00,54.8,54.8,29.74,NE,41,0.0,4.0,100,0.36,,---,0.79,VWS V14.01,2013-06-08 08:56:00,
2013-06-08 05:00:00,54.8,54.8,29.73,North,4,5.0,5.0,100,0.41,,---,-99.99,VWS V14.01,2013-06-08 09:00:00,
2013-06-08 05:01:00,54.8,54.8,29.73,North,4,5.0,5.0,100,0.20,,---,0.84,VWS V14.01,2013-06-08 09:01:00,
2013-06-08 05:06:00,54.8,54.8,29.73,East,83,0.0,5.0,100,0.20,,---,0.84,VWS V14.01,2013-06-08 09:06:00,
2013-06-08 05:11:00,54.8,54.8,29.73,NW,320,1.0,5.0,100,0.21,,---,0.85,VWS V14.01,2013-06-08 09:11:00,
2013-06-08 05:16:00,54.7,54.7,29.73,ENE,75,0.0,5.0,100,0.21,,---,0.85,VWS V14.01,2013-06-08 09:16:00,
2013-06-08 05:22:00,54.7,54.7,29.73,ENE,69,1.0,5.0,100,0.21,,---,0.85,VWS V14.01,2013-06-08 09:22:00,
2013-06-08 05:27:00,55.3,55.3,29.73,NNE,17,0.0,5.0,100,0.21,,---,0.85,VWS V14.01,2013-06-08 09:27:00,
2013-06-08 05:32:00,55.3,55.3,29.72,NNE,17,0.0,5.0,100,0.21,,---,0.85,VWS V14.01,2013-06-08 09:32:00,
2013-06-08 05:37:00,54.7,54.7,29.72,South,188,0.0,5.0,100,0.21,,---,0.85,VWS V14.01,2013-06-08 09:37:00,
2013-06-08 05:42:00,54.7,54.7,29.72,North,359,0.0,5.0,100,0.21,,---,0.85,VWS V14.01,2013-06-08 09:42:00,
2013-06-08 05:47:00,54.7,54.7,29.71,ENE,59,0.0,5.0,100,0.21,,---,0.85,VWS V14.01,2013-06-08 09:47:00,
2013-06-08 05:52:00,55.3,55.3,29.71,North,359,0.0,5.0,100,0.26,,---,0.90,VWS V14.01,2013-06-08 09:52:00,
2013-06-08 05:57:00,54.7,54.7,29.71,East,85,0.0,5.0,100,0.26,,---,0.90,VWS V14.01,2013-06-08 09:57:00,
2013-06-08 06:00:00,55.4,55.4,29.71,NNE,28,0.0,5.0,100,0.26,,---,-99.99,VWS V14.01,2013-06-08 10:00:00,
2013-06-08 06:02:00,55.4,55.4,29.71,ENE,69,0.0,0.0,100,0.06,,---,0.90,VWS V14.01,2013-06-08 10:02:00,
2013-06-08 06:07:00,55.4,55.4,29.71,South,169,0.0,0.0,100,0.06,,---,0.90,VWS V14.01,2013-06-08 10:07:00,
2013-06-08 06:12:00,55.4,55.4,29.71,South,174,0.0,1.0,100,0.14,,---,0.98,VWS V14.01,2013-06-08 10:12:00,
2013-06-08 06:17:00,55.4,55.4,29.70,NE,54,1.0,1.0,100,0.14,,---,0.98,VWS V14.01,2013-06-08 10:17:00,
2013-06-08 06:23:00,55.4,55.4,29.70,NNE,13,0.0,1.0,100,0.14,,---,0.98,VWS V14.01,2013-06-08 10:23:00,
2013-06-08 06:28:00,55.7,55.7,29.70,NE,56,5.0,5.0,100,0.14,,---,0.98,VWS V14.01,2013-06-08 10:28:00,
2013-06-08 06:33:00,55.9,55.9,29.70,ENE,71,0.0,5.0,100,0.14,,---,0.98,VWS V14.01,2013-06-08 10:33:00,
2013-06-08 06:38:00,55.9,55.9,29.70,North,3,0.0,5.0,100,0.14,,---,0.98,VWS V14.01,2013-06-08 10:38:00,
2013-06-08 06:43:00,55.9,55.9,29.70,North,0,0.0,5.0,100,0.14,,---,0.98,VWS V14.01,2013-06-08 10:43:00,
2013-06-08 06:48:00,55.9,55.9,29.69,NNE,24,0.0,5.0,100,0.14,,---,0.98,VWS V14.01,2013-06-08 10:48:00,
2013-06-08 06:58:00,55.7,55.7,29.69,ESE,117,0.0,5.0,100,0.32,,---,1.16,VWS V14.01,2013-06-08 10:58:00,
2013-06-08 07:00:00,55.6,55.6,29.67,East,80,2.0,5.0,100,0.32,,---,-99.99,VWS V14.01,2013-06-08 11:00:00,
2013-06-08 07:03:00,55.6,55.6,29.67,South,179,0.0,2.0,100,0.26,,---,1.16,VWS V14.01,2013-06-08 11:03:00,
2013-06-08 07:08:00,55.4,55.4,29.67,NE,34,0.0,2.0,100,0.28,,---,1.18,VWS V14.01,2013-06-08 11:08:00,
2013-06-08 07:13:00,55.4,55.4,29.67,SSW,195,0.0,2.0,100,0.28,,---,1.18,VWS V14.01,2013-06-08 11:13:00,
2013-06-08 07:22:00,56.2,56.2,29.66,ESE,113,0.0,2.0,100,0.28,,---,1.18,VWS V14.01,2013-06-08 11:22:00,
2013-06-08 07:27:00,56.2,56.2,29.66,East,80,0.0,2.0,100,0.42,,---,1.32,VWS V14.01,2013-06-08 11:27:00,
2013-06-08 07:32:00,56.2,56.2,29.66,East,80,0.0,2.0,100,0.42,,---,1.32,VWS V14.01,2013-06-08 11:32:00,
2013-06-08 07:37:00,55.7,55.7,29.66,NW,320,0.0,2.0,100,0.42,,---,1.32,VWS V14.01,2013-06-08 11:37:00,
2013-06-08 07:42:00,55.6,55.6,29.66,East,96,0.0,2.0,100,0.42,,---,1.32,VWS V14.01,2013-06-08 11:42:00,
2013-06-08 07:47:00,56.3,56.3,29.65,SE,128,0.0,2.0,100,0.42,,---,1.32,VWS V14.01,2013-06-08 11:47:00,
2013-06-08 07:52:00,56.3,56.3,29.65,ENE,64,3.0,3.0,100,0.42,,---,1.32,VWS V14.01,2013-06-08 11:52:00,
2013-06-08 07:57:00,56.3,56.3,29.65,ENE,61,6.0,6.0,100,0.42,,---,1.32,VWS V14.01,2013-06-08 11:57:00,
2013-06-08 08:00:00,56.7,56.7,29.64,NE,55,2.0,6.0,100,0.42,,---,-99.99,VWS V14.01,2013-06-08 12:00:00,
2013-06-08 08:03:00,56.9,56.9,29.64,NE,38,0.0,5.0,100,0.16,,---,1.32,VWS V14.01,2013-06-08 12:03:00,
2013-06-08 08:08:00,56.3,56.3,29.64,ENE,64,0.0,11.0,100,0.16,,---,1.32,VWS V14.01,2013-06-08 12:08:00,
2013-06-08 08:14:00,56.3,56.3,29.64,NE,51,0.0,11.0,100,0.16,,---,1.32,VWS V14.01,2013-06-08 12:14:00,
2013-06-08 08:19:00,56.3,56.3,29.64,NE,56,0.0,11.0,100,0.16,,---,1.32,VWS V14.01,2013-06-08 12:19:00,
2013-06-08 08:24:00,57.2,57.2,29.64,ENE,59,2.0,11.0,100,0.16,,---,1.32,VWS V14.01,2013-06-08 12:24:00,
2013-06-08 08:29:00,56.5,56.5,29.64,NE,45,0.0,11.0,100,0.16,,---,1.32,VWS V14.01,2013-06-08 12:29:00,
2013-06-08 08:34:00,56.5,56.5,29.63,ENE,58,0.0,11.0,100,0.16,,---,1.32,VWS V14.01,2013-06-08 12:34:00,
2013-06-08 08:39:00,56.5,56.5,29.63,ENE,66,6.0,11.0,100,0.18,,---,1.34,VWS V14.01,2013-06-08 12:39:00,
2013-06-08 08:44:00,56.5,56.5,29.63,ENE,71,0.0,11.0,100,0.19,,---,1.35,VWS V14.01,2013-06-08 12:44:00,
2013-06-08 08:49:00,56.9,56.9,29.62,SSE,162,0.0,11.0,100,0.19,,---,1.35,VWS V14.01,2013-06-08 12:49:00,
2013-06-08 08:54:00,56.9,56.9,29.62,ENE,59,2.0,11.0,100,0.20,,---,1.36,VWS V14.01,2013-06-08 12:54:00,
2013-06-08 08:59:00,57.0,57.0,29.62,ESE,109,0.0,11.0,100,0.20,,---,1.36,VWS V14.01,2013-06-08 12:59:00,
2013-06-08 09:00:00,57.0,57.0,29.61,WNW,294,0.0,11.0,100,0.20,,---,-99.99,VWS V14.01,2013-06-08 13:00:00,
2013-06-08 09:04:00,57.0,57.0,29.61,ENE,61,0.0,0.0,100,0.06,,---,1.38,VWS V14.01,2013-06-08 13:04:00,
2013-06-08 09:09:00,57.0,57.0,29.61,NE,56,0.0,0.0,100,0.06,,---,1.38,VWS V14.01,2013-06-08 13:09:00,
2013-06-08 09:14:00,57.0,57.0,29.61,SE,126,0.0,0.0,100,0.06,,---,1.38,VWS V14.01,2013-06-08 13:14:00,
2013-06-08 09:19:00,57.8,57.8,29.60,ENE,62,0.0,0.0,100,0.06,,---,1.38,VWS V14.01,2013-06-08 13:19:00,
2013-06-08 09:24:00,57.8,57.8,29.60,ENE,65,0.0,0.0,100,0.07,,---,1.39,VWS V14.01,2013-06-08 13:24:00,
2013-06-08 09:29:00,57.8,57.8,29.60,NE,38,0.0,0.0,100,0.07,,---,1.39,VWS V14.01,2013-06-08 13:29:00,
2013-06-08 09:34:00,57.8,57.8,29.60,ESE,103,0.0,0.0,100,0.08,,---,1.40,VWS V14.01,2013-06-08 13:34:00,
2013-06-08 09:39:00,58.1,58.1,29.60,ENE,59,0.0,0.0,100,0.08,,---,1.40,VWS V14.01,2013-06-08 13:39:00,
2013-06-08 09:44:00,58.1,58.1,29.60,NE,52,0.0,0.0,100,0.08,,---,1.40,VWS V14.01,2013-06-08 13:44:00,
2013-06-08 09:50:00,58.1,58.1,29.59,ENE,76,0.0,0.0,100,0.10,,---,1.42,VWS V14.01,2013-06-08 13:50:00,
2013-06-08 09:55:00,58.1,58.1,29.59,ENE,76,0.0,0.0,100,0.10,,---,1.42,VWS V14.01,2013-06-08 13:55:00,
2013-06-08 10:00:00,59.5,59.5,29.58,ENE,59,0.0,0.0,100,0.10,,---,1.42,VWS V14.01,2013-06-08 14:00:00,
2013-06-08 10:05:00,58.9,58.9,29.58,ENE,59,0.0,0.0,100,0.06,,---,1.42,VWS V14.01,2013-06-08 14:05:00,
2013-06-08 10:10:00,58.9,58.9,29.58,ENE,59,0.0,0.0,100,0.06,,---,1.42,VWS V14.01,2013-06-08 14:10:00,
2013-06-08 10:15:00,60.2,60.2,29.58,ENE,62,0.0,0.0,100,0.06,,---,1.42,VWS V14.01,2013-06-08 14:15:00,
2013-06-08 10:21:00,60.2,60.2,29.58,ENE,59,0.0,0.0,100,0.06,,---,1.42,VWS V14.01,2013-06-08 14:21:00,
2013-06-08 10:26:00,60.1,60.1,29.58,ESE,103,0.0,0.0,100,0.08,,---,1.44,VWS V14.01,2013-06-08 14:26:00,
2013-06-08 10:31:00,60.4,60.4,29.57,ENE,76,0.0,0.0,100,0.08,,---,1.44,VWS V14.01,2013-06-08 14:31:00,
2013-06-08 10:36:00,61.3,61.3,29.57,ENE,76,0.0,0.0,100,0.08,,---,1.44,VWS V14.01,2013-06-08 14:36:00,
2013-06-08 10:41:00,61.3,61.3,29.57,East,92,2.0,2.0,100,0.09,,---,1.45,VWS V14.01,2013-06-08 14:41:00,
2013-06-08 10:47:00,61.8,61.8,29.57,ENE,71,0.0,2.0,100,0.09,,---,1.45,VWS V14.01,2013-06-08 14:47:00,
2013-06-08 10:52:00,61.8,61.8,29.57,ENE,62,0.0,2.0,100,0.09,,---,1.45,VWS V14.01,2013-06-08 14:52:00,
2013-06-08 10:57:00,61.8,61.8,29.57,ENE,62,0.0,2.0,100,0.09,,---,1.45,VWS V14.01,2013-06-08 14:57:00,
2013-06-08 11:00:00,61.8,61.8,29.56,NNE,21,2.0,2.0,100,0.09,,---,-99.99,VWS V14.01,2013-06-08 15:00:00,
2013-06-08 11:02:00,61.8,61.8,29.56,NNE,21,0.0,2.0,100,0.03,,---,1.45,VWS V14.01,2013-06-08 15:02:00,
2013-06-08 11:07:00,61.8,61.8,29.56,ENE,62,3.0,3.0,100,0.03,,---,1.45,VWS V14.01,2013-06-08 15:07:00,
2013-06-08 11:13:00,62.1,62.1,29.56,North,7,0.0,3.0,100,0.03,,---,1.45,VWS V14.01,2013-06-08 15:13:00,
2013-06-08 11:18:00,62.1,62.1,29.56,NE,37,0.0,3.0,100,0.03,,---,1.45,VWS V14.01,2013-06-08 15:18:00,
2013-06-08 11:23:00,62.1,62.1,29.56,ENE,76,3.0,3.0,100,0.03,,---,1.45,VWS V14.01,2013-06-08 15:23:00,
2013-06-08 11:28:00,62.1,62.1,29.56,NE,56,2.0,3.0,100,0.03,,---,1.45,VWS V14.01,2013-06-08 15:28:00,
2013-06-08 11:33:00,62.3,62.3,29.56,ENE,59,0.0,3.0,100,0.03,,---,1.45,VWS V14.01,2013-06-08 15:33:00,
2013-06-08 11:39:00,62.6,62.6,29.56,ENE,71,0.0,3.0,100,0.03,,---,1.45,VWS V14.01,2013-06-08 15:39:00,
2013-06-08 11:44:00,62.6,62.6,29.56,NE,40,0.0,3.0,100,0.03,,---,1.45,VWS V14.01,2013-06-08 15:44:00,
2013-06-08 11:49:00,63.2,63.2,29.56,NE,38,0.0,3.0,100,0.03,,---,1.45,VWS V14.01,2013-06-08 15:49:00,
2013-06-08 11:54:00,63.2,63.2,29.56,North,11,0.0,3.0,100,0.03,,---,1.45,VWS V14.01,2013-06-08 15:54:00,
2013-06-08 11:59:00,63.2,63.2,29.56,North,11,0.0,3.0,100,0.03,,---,1.45,VWS V14.01,2013-06-08 15:59:00,
2013-06-08 12:00:00,63.2,63.2,29.56,NNE,17,0.0,3.0,100,0.03,,---,-99.99,VWS V14.01,2013-06-08 16:00:00,
2013-06-08 12:04:00,64.2,64.2,29.56,North,1,0.0,0.0,100,0.00,,---,1.45,VWS V14.01,2013-06-08 16:04:00,
2013-06-08 12:09:00,63.7,63.7,29.56,North,0,2.0,2.0,100,0.00,,---,1.45,VWS V14.01,2013-06-08 16:09:00,
2013-06-08 12:14:00,63.4,63.4,29.56,NNW,333,2.0,2.0,100,0.00,,---,1.45,VWS V14.01,2013-06-08 16:14:00,
2013-06-08 12:19:00,62.7,62.7,29.57,North,357,0.0,2.0,100,0.00,,---,1.45,VWS V14.01,2013-06-08 16:19:00,
2013-06-08 12:24:00,62.7,62.7,29.57,North,357,0.0,2.0,100,0.00,,---,1.45,VWS V14.01,2013-06-08 16:24:00,
2013-06-08 12:29:00,62.6,62.6,29.57,NNW,333,0.0,2.0,100,0.00,,---,1.45,VWS V14.01,2013-06-08 16:29:00,
2013-06-08 12:34:00,62.9,62.9,29.57,North,0,1.0,2.0,100,0.00,,---,1.45,VWS V14.01,2013-06-08 16:34:00,
2013-06-08 12:39:00,62.9,62.9,29.57,North,350,0.0,3.0,100,0.00,,---,1.45,VWS V14.01,2013-06-08 16:39:00,
2013-06-08 12:44:00,63.4,63.4,29.57,North,357,0.0,3.0,100,0.00,,---,1.45,VWS V14.01,2013-06-08 16:44:00,
2013-06-08 12:50:00,64.7,64.7,29.57,North,357,0.0,3.0,100,0.00,,---,1.45,VWS V14.01,2013-06-08 16:50:00,
2013-06-08 12:55:00,64.7,64.7,29.57,North,356,0.0,3.0,100,0.00,,---,1.45,VWS V14.01,2013-06-08 16:55:00,
2013-06-08 13:00:00,65.2,65.2,29.57,North,1,7.0,7.0,100,0.00,,---,1.45,VWS V14.01,2013-06-08 17:00:00,
2013-06-08 13:05:00,63.2,63.2,29.58,North,350,2.0,7.0,100,0.00,,---,1.45,VWS V14.01,2013-06-08 17:05:00,
2013-06-08 13:10:00,63.1,63.1,29.58,NNE,24,0.0,7.0,100,0.00,,---,1.45,VWS V14.01,2013-06-08 17:10:00,
2013-06-08 13:15:00,64.2,64.2,29.59,North,0,0.0,7.0,100,0.00,,---,1.45,VWS V14.01,2013-06-08 17:15:00,
2013-06-08 13:20:00,63.5,63.5,29.59,North,0,0.0,7.0,100,0.00,,---,1.45,VWS V14.01,2013-06-08 17:20:00,
2013-06-08 13:25:00,63.5,63.5,29.59,North,0,0.0,7.0,100,0.00,,---,1.45,VWS V14.01,2013-06-08 17:25:00,
2013-06-08 13:31:00,64.0,64.0,29.60,North,0,0.0,7.0,100,0.00,,---,1.45,VWS V14.01,2013-06-08 17:31:00,
2013-06-08 13:36:00,64.0,64.0,29.60,North,0,0.0,7.0,100,0.00,,---,1.45,VWS V14.01,2013-06-08 17:36:00,
2013-06-08 13:41:00,63.4,63.4,29.60,North,3,0.0,7.0,100,0.00,,---,1.45,VWS V14.01,2013-06-08 17:41:00,
2013-06-08 13:47:00,63.2,63.2,29.60,North,1,0.0,7.0,100,0.00,,---,1.45,VWS V14.01,2013-06-08 17:47:00,
2013-06-08 13:52:00,63.2,63.2,29.60,North,3,0.0,7.0,100,0.00,,---,1.45,VWS V14.01,2013-06-08 17:52:00,
2013-06-08 13:57:00,64.5,64.5,29.60,North,3,0.0,7.0,100,0.00,,---,1.45,VWS V14.01,2013-06-08 17:57:00,
2013-06-08 14:00:00,64.5,64.5,29.61,North,3,0.0,7.0,100,0.00,,---,-99.99,VWS V14.01,2013-06-08 18:00:00,
2013-06-08 14:02:00,64.5,64.5,29.61,North,3,0.0,0.0,100,0.00,,---,1.45,VWS V14.01,2013-06-08 18:02:00,
2013-06-08 14:07:00,64.0,64.0,29.61,North,3,0.0,0.0,100,0.00,,---,1.45,VWS V14.01,2013-06-08 18:07:00,
2013-06-08 14:12:00,64.2,64.2,29.61,North,3,0.0,0.0,100,0.00,,---,1.45,VWS V14.01,2013-06-08 18:12:00,
2013-06-08 14:17:00,64.2,64.2,29.61,North,3,0.0,0.0,100,0.00,,---,1.45,VWS V14.01,2013-06-08 18:17:00,
2013-06-08 14:22:00,64.3,64.3,29.61,North,3,0.0,0.0,100,0.00,,---,1.45,VWS V14.01,2013-06-08 18:22:00,
2013-06-08 14:27:00,64.7,64.7,29.61,North,3,0.0,0.0,100,0.00,,---,1.45,VWS V14.01,2013-06-08 18:27:00,
2013-06-08 14:32:00,65.3,65.3,29.63,North,352,0.0,0.0,100,0.00,,---,1.45,VWS V14.01,2013-06-08 18:32:00,
2013-06-08 14:37:00,65.3,65.3,29.63,North,352,0.0,0.0,100,0.00,,---,1.45,VWS V14.01,2013-06-08 18:37:00,
2013-06-08 14:42:00,65.3,65.3,29.63,NW,315,0.0,0.0,100,0.00,,---,1.45,VWS V14.01,2013-06-08 18:42:00,
2013-06-08 14:47:00,64.5,64.5,29.64,NW,315,0.0,0.0,100,0.00,,---,1.45,VWS V14.01,2013-06-08 18:47:00,
2013-06-08 14:52:00,64.5,64.5,29.64,North,0,0.0,0.0,100,0.00,,---,1.45,VWS V14.01,2013-06-08 18:52:00,
2013-06-08 14:57:00,64.5,64.5,29.64,North,0,0.0,0.0,100,0.00,,---,1.45,VWS V14.01,2013-06-08 18:57:00,
2013-06-08 15:00:00,64.5,64.5,29.65,North,0,0.0,0.0,100,0.00,,---,-99.99,VWS V14.01,2013-06-08 19:00:00,
2013-06-08 15:03:00,64.5,64.5,29.65,North,0,0.0,0.0,100,0.00,,---,1.45,VWS V14.01,2013-06-08 19:03:00,
2013-06-08 15:08:00,63.9,63.9,29.65,North,0,0.0,2.0,100,0.00,,---,1.45,VWS V14.01,2013-06-08 19:08:00,
2013-06-08 15:13:00,63.9,63.9,29.65,North,0,0.0,2.0,100,0.00,,---,1.45,VWS V14.01,2013-06-08 19:13:00,
2013-06-08 15:18:00,63.7,63.7,29.66,NNW,332,0.0,2.0,100,0.00,,---,1.45,VWS V14.01,2013-06-08 19:18:00,
2013-06-08 15:23:00,63.7,63.7,29.66,NNW,343,1.0,2.0,100,0.00,,---,1.45,VWS V14.01,2013-06-08 19:23:00,
2013-06-08 15:28:00,64.3,64.3,29.66,North,350,0.0,2.0,100,0.00,,---,1.45,VWS V14.01,2013-06-08 19:28:00,
2013-06-08 15:33:00,63.5,63.5,29.68,North,7,2.0,2.0,100,0.00,,---,1.45,VWS V14.01,2013-06-08 19:33:00,
2013-06-08 15:38:00,63.7,63.7,29.68,North,7,0.0,2.0,100,0.00,,---,1.45,VWS V14.01,2013-06-08 19:38:00,
2013-06-08 15:43:00,65.0,65.0,29.68,North,350,0.0,2.0,100,0.00,,---,1.45,VWS V14.01,2013-06-08 19:43:00,
2013-06-08 15:48:00,65.0,65.0,29.69,West,281,0.0,2.0,100,0.00,,---,1.45,VWS V14.01,2013-06-08 19:48:00,
2013-06-08 15:54:00,64.3,63.4,29.69,NNE,14,0.0,2.0,97,0.00,,---,1.45,VWS V14.01,2013-06-08 19:54:00,
2013-06-08 15:59:00,65.2,64.3,29.69,North,0,0.0,2.0,97,0.00,,---,1.45,VWS V14.01,2013-06-08 19:59:00,
2013-06-08 16:00:00,64.8,63.9,29.70,North,357,0.0,2.0,97,0.00,,---,-99.99,VWS V14.01,2013-06-08 20:00:00,
2013-06-08 16:04:00,64.8,63.9,29.70,North,357,0.0,0.0,97,0.00,,---,1.45,VWS V14.01,2013-06-08 20:04:00,
2013-06-08 16:09:00,65.8,64.9,29.70,North,357,0.0,0.0,97,0.00,,---,1.45,VWS V14.01,2013-06-08 20:09:00,
2013-06-08 16:14:00,65.0,64.1,29.70,North,357,0.0,0.0,97,0.00,,---,1.45,VWS V14.01,2013-06-08 20:14:00,
2013-06-08 16:19:00,65.0,64.1,29.72,North,357,0.0,0.0,97,0.00,,---,1.45,VWS V14.01,2013-06-08 20:19:00,
2013-06-08 16:24:00,65.0,64.1,29.72,WNW,298,0.0,157.0,97,0.00,,---,1.45,VWS V14.01,2013-06-08 20:24:00,
2013-06-08 16:29:00,64.5,63.6,29.72,WNW,295,0.0,157.0,97,0.00,,---,1.45,VWS V14.01,2013-06-08 20:29:00,
2013-06-08 16:34:00,64.5,63.6,29.73,WNW,295,0.0,157.0,97,0.00,,---,1.45,VWS V14.01,2013-06-08 20:34:00,
2013-06-08 16:39:00,64.5,63.6,29.73,WNW,295,0.0,157.0,97,0.00,,---,1.45,VWS V14.01,2013-06-08 20:39:00,
2013-06-08 16:44:00,65.5,64.6,29.73,North,349,0.0,157.0,97,0.00,,---,1.45,VWS V14.01,2013-06-08 20:44:00,
2013-06-08 16:49:00,65.3,64.4,29.73,North,357,0.0,157.0,97,0.00,,---,1.45,VWS V14.01,2013-06-08 20:49:00,
2013-06-08 16:54:00,65.3,64.4,29.73,North,357,0.0,157.0,97,0.00,,---,1.45,VWS V14.01,2013-06-08 20:54:00,
2013-06-08 16:59:00,65.3,64.4,29.73,North,357,0.0,157.0,97,0.00,,---,1.45,VWS V14.01,2013-06-08 20:59:00,
2013-06-08 17:00:00,65.3,64.4,29.75,North,357,0.0,157.0,97,0.00,,---,-99.99,VWS V14.01,2013-06-08 21:00:00,
2013-06-08 17:04:00,65.3,64.4,29.75,NNE,21,0.0,0.0,97,0.00,,---,1.45,VWS V14.01,2013-06-08 21:04:00,
2013-06-08 17:10:00,66.1,65.2,29.75,NW,318,0.0,0.0,97,0.00,,---,1.45,VWS V14.01,2013-06-08 21:10:00,
2013-06-08 17:15:00,66.1,65.2,29.75,NW,304,0.0,0.0,97,0.00,,---,1.45,VWS V14.01,2013-06-08 21:15:00,
2013-06-08 17:20:00,66.1,65.2,29.75,WNW,288,0.0,0.0,97,0.00,,---,1.45,VWS V14.01,2013-06-08 21:20:00,
2013-06-08 17:25:00,66.1,65.2,29.75,WNW,284,0.0,0.0,97,0.00,,---,1.45,VWS V14.01,2013-06-08 21:25:00,
2013-06-08 17:30:00,66.1,65.2,29.75,WNW,284,0.0,0.0,97,0.00,,---,1.45,VWS V14.01,2013-06-08 21:30:00,
2013-06-08 17:35:00,66.1,61.8,29.76,WNW,284,0.0,0.0,86,0.00,,---,1.45,VWS V14.01,2013-06-08 21:35:00,
2013-06-08 17:40:00,66.1,61.8,29.76,WNW,284,0.0,0.0,86,0.00,,---,1.45,VWS V14.01,2013-06-08 21:40:00,
2013-06-08 17:45:00,66.0,61.0,29.78,WNW,287,0.0,0.0,84,0.00,,---,1.45,VWS V14.01,2013-06-08 21:45:00,
2013-06-08 17:50:00,66.0,61.0,29.78,WNW,287,0.0,0.0,84,0.00,,---,1.45,VWS V14.01,2013-06-08 21:50:00,
2013-06-08 17:55:00,65.3,60.3,29.78,WNW,299,0.0,0.0,84,0.00,,---,1.45,VWS V14.01,2013-06-08 21:55:00,
2013-06-08 18:00:00,65.3,60.3,29.78,NW,305,0.0,0.0,84,0.00,,---,1.45,VWS V14.01,2013-06-08 22:00:00,
2013-06-08 18:05:00,64.8,59.9,29.78,NW,309,0.0,0.0,84,0.00,,---,1.45,VWS V14.01,2013-06-08 22:05:00,
2013-06-08 18:10:00,64.0,59.1,29.78,North,6,0.0,0.0,84,0.00,,---,1.45,VWS V14.01,2013-06-08 22:10:00,
2013-06-08 18:15:00,64.0,59.1,29.78,North,6,0.0,0.0,84,0.00,,---,1.45,VWS V14.01,2013-06-08 22:15:00,
2013-06-08 18:20:00,64.0,59.1,29.78,North,357,0.0,0.0,84,0.00,,---,1.45,VWS V14.01,2013-06-08 22:20:00,
2013-06-08 18:25:00,63.5,58.6,29.78,North,357,0.0,0.0,84,0.00,,---,1.45,VWS V14.01,2013-06-08 22:25:00,
2013-06-08 18:30:00,63.5,58.6,29.80,North,357,0.0,0.0,84,0.00,,---,1.45,VWS V14.01,2013-06-08 22:30:00,
2013-06-08 18:36:00,63.5,58.6,29.80,North,357,0.0,0.0,84,0.00,,---,1.45,VWS V14.01,2013-06-08 22:36:00,
2013-06-08 18:41:00,63.7,58.8,29.80,North,357,0.0,0.0,84,0.00,,---,1.45,VWS V14.01,2013-06-08 22:41:00,
2013-06-08 18:46:00,63.5,59.2,29.81,North,357,0.0,0.0,86,0.00,,---,1.45,VWS V14.01,2013-06-08 22:46:00,
2013-06-08 18:51:00,63.9,59.6,29.81,North,357,0.0,0.0,86,0.00,,---,1.45,VWS V14.01,2013-06-08 22:51:00,
2013-06-08 18:56:00,63.9,59.6,29.81,North,357,0.0,0.0,86,0.00,,---,1.45,VWS V14.01,2013-06-08 22:56:00,
2013-06-08 19:00:00,63.7,59.4,29.81,North,356,0.0,0.0,86,0.00,,---,-99.99,VWS V14.01,2013-06-08 23:00:00,
2013-06-08 19:01:00,63.7,59.4,29.81,North,356,0.0,0.0,86,0.00,,---,1.45,VWS V14.01,2013-06-08 23:01:00,
2013-06-08 19:06:00,63.7,59.4,29.81,North,356,0.0,0.0,86,0.00,,---,1.45,VWS V14.01,2013-06-08 23:06:00,
2013-06-08 19:11:00,63.2,58.6,29.81,North,356,0.0,0.0,85,0.00,,---,1.45,VWS V14.01,2013-06-08 23:11:00,
2013-06-08 19:16:00,63.2,58.6,29.81,North,357,0.0,0.0,85,0.00,,---,1.45,VWS V14.01,2013-06-08 23:16:00,
2013-06-08 19:21:00,63.2,58.6,29.81,North,357,0.0,0.0,85,0.00,,---,1.45,VWS V14.01,2013-06-08 23:21:00,
2013-06-08 19:26:00,62.7,58.1,29.81,North,357,0.0,0.0,85,0.00,,---,1.45,VWS V14.01,2013-06-08 23:26:00,
2013-06-08 19:31:00,62.7,58.1,29.83,North,357,0.0,0.0,85,0.00,,---,1.45,VWS V14.01,2013-06-08 23:31:00,
2013-06-08 19:36:00,62.7,58.1,29.83,North,357,0.0,0.0,85,0.00,,---,1.45,VWS V14.01,2013-06-08 23:36:00,
2013-06-08 19:42:00,62.1,57.5,29.83,North,357,0.0,0.0,85,0.00,,---,1.45,VWS V14.01,2013-06-08 23:42:00,
2013-06-08 19:47:00,62.1,57.5,29.84,North,357,0.0,0.0,85,0.00,,---,1.45,VWS V14.01,2013-06-08 23:47:00,
2013-06-08 19:52:00,62.0,58.7,29.84,North,357,0.0,0.0,89,0.00,,---,1.45,VWS V14.01,2013-06-08 23:52:00,
2013-06-08 19:57:00,62.0,58.7,29.84,North,357,0.0,0.0,89,0.00,,---,1.45,VWS V14.01,2013-06-08 23:57:00,
2013-06-08 20:00:00,62.0,58.7,29.84,North,357,0.0,0.0,89,0.00,,---,-99.99,VWS V14.01,2013-06-09 00:00:00,
2013-06-08 20:02:00,62.0,58.7,29.84,North,357,0.0,0.0,89,0.00,,---,1.45,VWS V14.01,2013-06-09 00:02:00,
2013-06-08 20:07:00,61.8,58.5,29.84,North,357,0.0,0.0,89,0.00,,---,1.45,VWS V14.01,2013-06-09 00:07:00,
2013-06-08 20:12:00,61.5,58.8,29.84,North,357,0.0,0.0,91,0.00,,---,1.45,VWS V14.01,2013-06-09 00:12:00,
2013-06-08 20:17:00,61.5,58.8,29.84,North,357,0.0,0.0,91,0.00,,---,1.45,VWS V14.01,2013-06-09 00:17:00,
2013-06-08 20:22:00,61.5,58.8,29.84,North,357,0.0,0.0,91,0.00,,---,1.45,VWS V14.01,2013-06-09 00:22:00,
2013-06-08 20:27:00,61.3,58.7,29.84,North,357,0.0,0.0,91,0.00,,---,1.45,VWS V14.01,2013-06-09 00:27:00,
2013-06-08 20:32:00,61.3,59.0,29.85,North,357,0.0,0.0,92,0.00,,---,1.45,VWS V14.01,2013-06-09 00:32:00,
2013-06-08 20:37:00,61.2,58.9,29.85,North,357,0.0,0.0,92,0.00,,---,1.45,VWS V14.01,2013-06-09 00:37:00,
2013-06-08 20:42:00,61.2,58.9,29.85,North,357,0.0,0.0,92,0.00,,---,1.45,VWS V14.01,2013-06-09 00:42:00,
2013-06-08 20:48:00,61.2,58.9,29.86,North,357,0.0,0.0,92,0.00,,---,1.45,VWS V14.01,2013-06-09 00:48:00,
2013-06-08 20:53:00,61.2,58.9,29.86,North,357,0.0,0.0,92,0.00,,---,1.45,VWS V14.01,2013-06-09 00:53:00,
2013-06-08 20:58:00,61.0,58.7,29.86,North,357,0.0,0.0,92,0.00,,---,1.45,VWS V14.01,2013-06-09 00:58:00,
2013-06-08 21:00:00,61.0,58.7,29.86,North,357,0.0,0.0,92,0.00,,---,-99.99,VWS V14.01,2013-06-09 01:00:00,
2013-06-08 21:03:00,61.0,58.7,29.86,North,357,0.0,0.0,92,0.00,,---,1.45,VWS V14.01,2013-06-09 01:03:00,
2013-06-08 21:08:00,61.0,59.6,29.86,North,357,0.0,0.0,95,0.00,,---,1.45,VWS V14.01,2013-06-09 01:08:00,
2013-06-08 21:13:00,61.0,59.6,29.86,North,357,0.0,0.0,95,0.00,,---,1.45,VWS V14.01,2013-06-09 01:13:00,
2013-06-08 21:18:00,61.0,59.6,29.87,North,357,0.0,0.0,95,0.00,,---,1.45,VWS V14.01,2013-06-09 01:18:00,
2013-06-08 21:23:00,61.0,59.6,29.87,North,357,0.0,0.0,95,0.00,,---,1.45,VWS V14.01,2013-06-09 01:23:00,
2013-06-08 21:28:00,60.7,59.3,29.87,North,357,0.0,0.0,95,0.00,,---,1.45,VWS V14.01,2013-06-09 01:28:00,
2013-06-08 21:33:00,60.7,59.3,29.87,North,357,0.0,0.0,95,0.00,,---,1.45,VWS V14.01,2013-06-09 01:33:00,
2013-06-08 21:38:00,60.7,59.3,29.87,North,357,0.0,0.0,95,0.00,,---,1.45,VWS V14.01,2013-06-09 01:38:00,
2013-06-08 21:43:00,60.7,59.3,29.87,North,357,0.0,0.0,95,0.00,,---,1.45,VWS V14.01,2013-06-09 01:43:00,
2013-06-08 21:48:00,60.7,59.3,29.88,North,359,0.0,0.0,95,0.00,,---,1.45,VWS V14.01,2013-06-09 01:48:00,
2013-06-08 21:53:00,60.7,59.3,29.88,North,359,0.0,0.0,95,0.00,,---,1.45,VWS V14.01,2013-06-09 01:53:00,
2013-06-08 21:58:00,60.7,59.3,29.88,North,359,0.0,0.0,95,0.00,,---,1.45,VWS V14.01,2013-06-09 01:58:00,
2013-06-08 22:00:00,60.7,59.3,29.88,North,359,0.0,0.0,95,0.00,,---,-99.99,VWS V14.01,2013-06-09 02:00:00,
2013-06-08 22:04:00,60.7,59.3,29.88,North,359,0.0,0.0,95,0.00,,---,1.45,VWS V14.01,2013-06-09 02:04:00,
2013-06-08 22:09:00,60.7,59.3,29.88,North,359,0.0,0.0,95,0.00,,---,1.45,VWS V14.01,2013-06-09 02:09:00,
2013-06-08 22:14:00,60.7,59.3,29.88,North,359,0.0,0.0,95,0.00,,---,1.45,VWS V14.01,2013-06-09 02:14:00,
2013-06-08 22:19:00,60.5,59.1,29.88,North,359,0.0,0.0,95,0.00,,---,1.45,VWS V14.01,2013-06-09 02:19:00,
2013-06-08 22:24:00,60.5,59.1,29.88,North,359,0.0,0.0,95,0.00,,---,1.45,VWS V14.01,2013-06-09 02:24:00,
2013-06-08 22:29:00,60.5,59.1,29.88,North,359,0.0,0.0,95,0.00,,---,1.45,VWS V14.01,2013-06-09 02:29:00,
2013-06-08 22:34:00,60.5,59.1,29.89,North,359,0.0,0.0,95,0.00,,---,1.45,VWS V14.01,2013-06-09 02:34:00,
2013-06-08 22:39:00,60.5,59.1,29.89,North,359,0.0,0.0,95,0.00,,---,1.45,VWS V14.01,2013-06-09 02:39:00,
2013-06-08 22:44:00,60.5,59.1,29.89,North,359,0.0,0.0,95,0.00,,---,1.45,VWS V14.01,2013-06-09 02:44:00,
2013-06-08 22:49:00,60.5,59.1,29.89,North,359,0.0,0.0,95,0.00,,---,1.45,VWS V14.01,2013-06-09 02:49:00,
2013-06-08 22:54:00,60.5,59.1,29.89,North,359,0.0,0.0,95,0.00,,---,1.45,VWS V14.01,2013-06-09 02:54:00,
2013-06-08 22:59:00,60.5,59.1,29.89,North,359,0.0,0.0,95,0.00,,---,1.45,VWS V14.01,2013-06-09 02:59:00,
2013-06-08 23:00:00,60.5,59.1,29.88,North,359,0.0,0.0,95,0.00,,---,-99.99,VWS V14.01,2013-06-09 03:00:00,
2013-06-08 23:04:00,60.5,59.1,29.88,North,359,0.0,0.0,95,0.00,,---,1.45,VWS V14.01,2013-06-09 03:04:00,
2013-06-08 23:09:00,60.4,59.0,29.88,North,359,0.0,0.0,95,0.00,,---,1.45,VWS V14.01,2013-06-09 03:09:00,
2013-06-08 23:14:00,60.4,59.0,29.88,North,359,0.0,0.0,95,0.00,,---,1.45,VWS V14.01,2013-06-09 03:14:00,
2013-06-08 23:19:00,60.4,59.0,29.89,North,359,0.0,0.0,95,0.00,,---,1.45,VWS V14.01,2013-06-09 03:19:00,
2013-06-08 23:25:00,60.7,59.3,29.89,North,359,0.0,0.0,95,0.00,,---,1.45,VWS V14.01,2013-06-09 03:25:00,
2013-06-08 23:30:00,60.4,59.0,29.89,North,359,0.0,0.0,95,0.00,,---,1.45,VWS V14.01,2013-06-09 03:30:00,
2013-06-08 23:35:00,60.2,58.8,29.88,North,359,0.0,0.0,95,0.00,,---,1.45,VWS V14.01,2013-06-09 03:35:00,
2013-06-08 23:40:00,60.2,58.8,29.88,North,359,0.0,0.0,95,0.00,,---,1.45,VWS V14.01,2013-06-09 03:40:00,
2013-06-08 23:45:00,60.1,58.7,29.89,North,359,0.0,0.0,95,0.00,,---,1.45,VWS V14.01,2013-06-09 03:45:00,
2013-06-08 23:50:00,60.1,58.7,29.89,North,359,0.0,0.0,95,0.00,,---,1.45,VWS V14.01,2013-06-09 03:50:00,
2013-06-08 23:55:00,59.9,59.9,29.89,North,359,0.0,0.0,100,0.00,,---,1.45,VWS V14.01,2013-06-09 03:55:00,